QPF
0.00 0.00 0.00 0.00 0.00 0.00 0.00 0.00 0.00 0.00 0.01 0.01 0.01 0.00 0.00 0.00 0.00 0.00 0.00 0.00 0.00 0.01 0.01 0.01 0.01 0.01 0.01 0.01 0.01 0.01 0.00 0.01 0.01 0.02 0.02 0.02 0.03 0.02 0.03 0.03 0.04 0.04 0.03 0.02
0.00 0.00 0.00 0.00 0.00 0.00 0.00 0.01 0.00 0.01 0.01 0.01 0.01 0.01 0.00 0.00 0.00 0.00 0.00 0.00 0.00 0.00 0.01 0.01 0.01 0.00 0.00 0.00 0.01 0.01 0.01 0.01 0.02 0.02 0.02 0.02 0.03 0.02 0.03 0.03 0.02 0.02 0.02 0.01
0.00 0.00 0.00 0.01 0.01 0.01 0.01 0.01 0.01 0.01 0.01 0.01 0.01 0.01 0.01 0.00 0.00 0.00 0.00 0.00 0.00 0.00 0.00 0.01 0.01 0.01 0.00 0.00 0.00 0.01 0.01 0.02 0.03 0.03 0.03 0.03 0.02 0.02 0.02 0.03 0.03 0.02 0.01 0.01
0.01 0.01 0.01 0.01 0.01 0.01 0.02 0.02 0.02 0.01 0.01 0.01 0.01 0.01 0.01 0.01 0.01 0.01 0.00 0.00 0.00 0.00 0.01 0.01 0.02 0.01 0.01 0.00 0.00 0.00 0.01 0.02 0.03 0.03 0.03 0.04 0.04 0.03 0.02 0.03 0.03 0.02 0.01 0.01
0.02 0.01 0.01 0.01 0.01 0.03 0.03 0.03 0.02 0.02 0.01 0.01 0.01 0.00 0.00 0.00 0.00 0.00 0.01 0.01 0.01 0.01 0.01 0.02 0.02 0.01 0.01 0.01 0.00 0.00 0.01 0.01 0.01 0.01 0.02 0.03 0.03 0.03 0.02 0.02 0.02 0.02 0.01 0.01
0.02 0.02 0.01 0.03 0.03 0.03 0.03 0.04 0.02 0.02 0.02 0.03 0.02 0.01 0.01 0.00 0.00 0.00 0.00 0.01 0.01 0.01 0.01 0.02 0.02 0.01 0.01 0.01 0.01 0.01 0.01 0.02 0.02 0.02 0.02 0.02 0.02 0.03 0.04 0.03 0.03 0.02 0.02 0.01
0.03 0.03 0.03 0.02 0.02 0.03 0.05 0.05 0.03 0.02 0.03 0.03 0.02 0.02 0.01 0.01 0.00 0.01 0.01 0.01 0.01 0.01 0.01 0.01 0.02 0.02 0.01 0.01 0.01 0.02 0.02 0.02 0.02 0.02 0.02 0.03 0.03 0.03 0.03 0.04 0.03 0.03 0.02 0.02
0.04 0.04 0.05 0.04 0.02 0.04 0.05 0.03 0.03 0.03 0.04 0.02 0.02 0.02 0.02 0.01 0.01 0.01 0.01 0.01 0.01 0.01 0.02 0.02 0.02 0.02 0.01 0.01 0.01 0.03 0.02 0.02 0.03 0.04 0.04 0.03 0.04 0.05 0.05 0.05 0.05 0.05 0.04 0.03
0.04 0.04 0.04 0.05 0.06 0.04 0.03 0.04 0.03 0.03 0.03 0.02 0.02 0.02 0.02 0.01 0.01 0.01 0.01 0.01 0.01 0.01 0.02 0.03 0.03 0.03 0.03 0.03 0.03 0.04 0.04 0.03 0.03 0.04 0.04 0.04 0.05 0.06 0.06 0.05 0.05 0.05 0.05 0.06
0.05 0.05 0.04 0.04 0.04 0.05 0.07 0.07 0.06 0.03 0.03 0.03 0.03 0.02 0.03 0.02 0.01 0.01 0.02 0.02 0.02 0.02 0.02 0.04 0.05 0.05 0.05 0.04 0.04 0.04 0.05 0.04 0.04 0.04 0.05 0.06 0.07 0.08 0.07 0.06 0.06 0.05 0.06 0.07
0.09 0.07 0.06 0.04 0.04 0.06 0.07 0.08 0.09 0.06 0.05 0.07 0.06 0.05 0.04 0.04 0.03 0.03 0.04 0.04 0.03 0.03 0.04 0.06 0.08 0.07 0.07 0.06 0.05 0.05 0.05 0.05 0.04 0.05 0.07 0.07 0.09 0.10 0.10 0.09 0.10 0.09 0.08 0.09
0.10 0.08 0.07 0.07 0.07 0.09 0.11 0.10 0.10 0.07 0.05 0.07 0.10 0.12 0.08 0.07 0.06 0.05 0.06 0.05 0.03 0.04 0.05 0.08 0.10 0.12 0.12 0.08 0.05 0.04 0.04 0.04 0.05 0.05 0.06 0.06 0.07 0.07 0.08 0.08 0.09 0.10 0.10 0.09
0.06 0.06 0.07 0.09 0.11 0.13 0.16 0.12 0.09 0.07 0.05 0.05 0.06 0.10 0.10 0.08 0.07 0.05 0.04 0.04 0.04 0.03 0.04 0.06 0.07 0.10 0.14 0.15 0.12 0.09 0.07 0.07 0.07 0.07 0.06 0.05 0.05 0.06 0.07 0.07 0.07 0.08 0.08 0.08
0.07 0.05 0.06 0.09 0.11 0.11 0.14 0.12 0.09 0.08 0.06 0.05 0.05 0.08 0.09 0.06 0.04 0.04 0.04 0.04 0.03 0.03 0.03 0.04 0.05 0.06 0.07 0.10 0.12 0.11 0.10 0.10 0.09 0.07 0.06 0.05 0.05 0.06 0.06 0.06 0.06 0.06 0.06 0.06
0.05 0.05 0.06 0.06 0.08 0.10 0.12 0.11 0.09 0.07 0.07 0.08 0.07 0.09 0.12 0.09 0.06 0.05 0.05 0.05 0.05 0.04 0.04 0.04 0.05 0.05 0.05 0.05 0.07 0.08 0.09 0.08 0.06 0.05 0.04 0.04 0.05 0.05 0.05 0.05 0.05 0.05 0.05 0.04
0.03 0.03 0.03 0.04 0.05 0.06 0.07 0.07 0.07 0.07 0.06 0.08 0.09 0.07 0.08 0.09 0.09 0.08 0.06 0.07 0.09 0.08 0.05 0.05 0.05 0.05 0.05 0.05 0.06 0.06 0.06 0.06 0.05 0.03 0.03 0.03 0.03 0.04 0.04 0.05 0.05 0.05 0.04 0.04
0.03 0.02 0.03 0.03 0.04 0.05 0.06 0.05 0.05 0.05 0.05 0.07 0.08 0.06 0.05 0.05 0.06 0.07 0.07 0.05 0.06 0.07 0.07 0.06 0.05 0.05 0.04 0.04 0.04 0.04 0.05 0.06 0.06 0.06 0.04 0.04 0.04 0.04 0.03 0.03 0.03 0.03 0.03 0.03
0.03 0.03 0.04 0.04 0.04 0.06 0.07 0.05 0.05 0.05 0.05 0.04 0.04 0.04 0.04 0.03 0.04 0.05 0.05 0.04 0.04 0.04 0.05 0.05 0.05 0.04 0.04 0.03 0.03 0.03 0.03 0.03 0.03 0.03 0.04 0.03 0.04 0.04 0.04 0.04 0.04 0.03 0.03 0.03
0.02 0.03 0.05 0.05 0.06 0.09 0.08 0.05 0.04 0.04 0.04 0.03 0.02 0.02 0.02 0.02 0.03 0.04 0.04 0.03 0.03 0.03 0.03 0.04 0.04 0.03 0.02 0.02 0.02 0.02 0.02 0.02 0.01 0.01 0.02 0.02 0.03 0.03 0.04 0.04 0.04 0.04 0.03 0.03
0.04 0.05 0.05 0.06 0.09 0.11 0.10 0.06 0.03 0.03 0.02 0.02 0.01 0.01 0.01 0.01 0.02 0.03 0.04 0.05 0.05 0.04 0.03 0.02 0.02 0.02 0.02 0.02 0.02 0.01 0.01 0.01 0.01 0.01 0.01 0.01 0.02 0.02 0.03 0.03 0.03 0.02 0.02 0.02
0.05 0.05 0.05 0.07 0.08 0.10 0.09 0.05 0.03 0.02 0.02 0.01 0.01 0.01 0.00 0.00 0.00 0.01 0.03 0.04 0.05 0.05 0.05 0.06 0.04 0.03 0.02 0.02 0.01 0.01 0.01 0.01 0.01 0.01 0.01 0.01 0.01 0.01 0.01 0.01 0.01 0.01 0.01 0.01
0.06 0.06 0.06 0.07 0.09 0.09 0.08 0.06 0.04 0.03 0.02 0.01 0.01 0.01 0.01 0.00 0.00 0.00 0.01 0.02 0.03 0.05 0.05 0.06 0.05 0.04 0.03 0.02 0.02 0.01 0.01 0.01 0.01 0.01 0.01 0.01 0.01 0.01 0.01 0.01 0.01 0.01 0.01 0.01
0.07 0.07 0.06 0.07 0.07 0.07 0.06 0.05 0.03 0.03 0.02 0.02 0.01 0.01 0.01 0.01 0.00 0.00 0.00 0.00 0.00 0.01 0.03 0.05 0.05 0.05 0.04 0.03 0.02 0.02 0.02 0.02 0.01 0.01 0.01 0.01 0.01 0.01 0.01 0.02 0.01 0.01 0.01 0.01
0.05 0.06 0.06 0.06 0.05 0.06 0.05 0.04 0.03 0.03 0.02 0.02 0.01 0.00 0.00 0.00 0.00 0.00 0.00 0.00 0.00 0.00 0.00 0.00 0.01 0.01 0.02 0.03 0.03 0.03 0.03 0.02 0.02 0.02 0.01 0.01 0.01 0.01 0.01 0.01 0.01 0.01 0.01 0.00
0.03 0.04 0.04 0.04 0.03 0.03 0.03 0.03 0.02 0.02 0.02 0.02 0.01 0.00 0.00 0.00 0.00 0.00 0.00 0.00 0.00 0.00 0.00 0.00 0.00 0.00 0.00 0.00 0.00 0.01 0.01 0.01 0.01 0.01 0.01 0.01 0.01 0.00 0.00 0.00 0.00 0.01 0.01 0.00
0.03 0.04 0.04 0.04 0.03 0.03 0.03 0.03 0.03 0.03 0.02 0.01 0.01 0.00 0.00 0.00 0.00 0.00 0.00 0.00 0.00 0.00 0.00 0.00 0.00 0.00 0.00 0.00 0.00 0.00 0.00 0.00 0.00 0.00 0.00 0.00 0.00 0.00 0.01 0.01 0.01 0.01 0.00 0.00
0.03 0.04 0.04 0.04 0.04 0.03 0.02 0.02 0.02 0.02 0.01 0.01 0.00 0.00 0.00 0.00 0.00 0.00 0.00 0.00 0.00 0.00 0.00 0.00 0.00 0.00 0.00 0.00 0.01 0.01 0.00 0.00 0.00 0.00 0.00 0.00 0.00 0.01 0.01 0.01 0.01 0.01 0.00 0.00
MSLP
1004.16 1004.53 1004.89 1005.23 1005.52 1005.74 1005.87 1005.88 1005.77 1005.54 1005.21 1004.81 1004.40 1004.04 1003.78 1003.66 1003.71 1003.92 1004.29 1004.77 1005.32 1005.89 1006.45 1006.96 1007.42 1007.84 1008.22 1008.60 1008.99 1009.41 1009.87 1010.36 1010.87 1011.38 1011.87 1012.32 1012.73 1013.10 1013.42 1013.71 1013.99 1014.26 1014.52 1014.79
1004.35 1004.71 1005.01 1005.25 1005.42 1005.51 1005.53 1005.46 1005.31 1005.08 1004.78 1004.46 1004.13 1003.84 1003.64 1003.54 1003.57 1003.73 1004.02 1004.42 1004.90 1005.43 1005.98 1006.52 1007.06 1007.57 1008.07 1008.56 1009.04 1009.52 1010.00 1010.47 1010.93 1011.37 1011.78 1012.16 1012.51 1012.82 1013.11 1013.39 1013.67 1013.94 1014.21 1014.48
1004.66 1005.00 1005.24 1005.39 1005.46 1005.44 1005.36 1005.22 1005.03 1004.80 1004.55 1004.29 1004.04 1003.82 1003.65 1003.56 1003.56 1003.65 1003.85 1004.14 1004.51 1004.95 1005.44 1005.98 1006.53 1007.10 1007.67 1008.23 1008.79 1009.32 1009.82 1010.29 1010.72 1011.11 1011.46 1011.78 1012.07 1012.35 1012.62 1012.89 1013.17 1013.45 1013.73 1014.00
1005.03 1005.34 1005.53 1005.61 1005.59 1005.49 1005.33 1005.14 1004.93 1004.71 1004.51 1004.31 1004.13 1003.97 1003.84 1003.75 1003.71 1003.72 1003.80 1003.95 1004.18 1004.49 1004.88 1005.34 1005.87 1006.43 1007.03 1007.63 1008.23 1008.80 1009.33 1009.81 1010.23 1010.59 1010.91 1011.19 1011.45 1011.71 1011.97 1012.24 1012.53 1012.83 1013.12 1013.41
1005.38 1005.65 1005.79 1005.80 1005.72 1005.55 1005.35 1005.13 1004.92 1004.73 1004.57 1004.44 1004.33 1004.23 1004.13 1004.04 1003.95 1003.88 1003.83 1003.84 1003.91 1004.06 1004.31 1004.66 1005.10 1005.62 1006.20 1006.82 1007.44 1008.04 1008.59 1009.09 1009.52 1009.88 1010.19 1010.47 1010.73 1010.99 1011.26 1011.54 1011.85 1012.17 1012.48 1012.78
1005.60 1005.82 1005.91 1005.88 1005.75 1005.55 1005.32 1005.10 1004.90 1004.75 1004.64 1004.57 1004.51 1004.47 1004.40 1004.31 1004.18 1004.03 1003.87 1003.74 1003.65 1003.65 1003.74 1003.96 1004.29 1004.74 1005.28 1005.88 1006.50 1007.12 1007.71 1008.24 1008.70 1009.10 1009.44 1009.74 1010.02 1010.30 1010.59 1010.90 1011.23 1011.58 1011.91 1012.23
1005.64 1005.80 1005.83 1005.76 1005.60 1005.39 1005.15 1004.94 1004.76 1004.64 1004.58 1004.56 1004.56 1004.56 1004.52 1004.43 1004.28 1004.08 1003.84 1003.59 1003.38 1003.23 1003.19 1003.28 1003.51 1003.88 1004.36 1004.94 1005.57 1006.21 1006.83 1007.41 1007.92 1008.37 1008.75 1009.10 1009.43 1009.75 1010.08 1010.43 1010.79 1011.16 1011.52 1011.87
1005.48 1005.56 1005.55 1005.45 1005.27 1005.05 1004.81 1004.60 1004.44 1004.35 1004.31 1004.33 1004.36 1004.39 1004.39 1004.31 1004.16 1003.94 1003.66 1003.35 1003.06 1002.83 1002.70 1002.70 1002.85 1003.15 1003.59 1004.15 1004.78 1005.44 1006.10 1006.72 1007.29 1007.80 1008.25 1008.66 1009.04 1009.41 1009.79 1010.17 1010.57 1010.98 1011.37 1011.73
1005.14 1005.16 1005.11 1004.98 1004.79 1004.56 1004.32 1004.11 1003.95 1003.85 1003.82 1003.84 1003.89 1003.94 1003.96 1003.92 1003.80 1003.60 1003.34 1003.04 1002.74 1002.49 1002.33 1002.29 1002.41 1002.68 1003.09 1003.64 1004.27 1004.95 1005.63 1006.30 1006.92 1007.49 1008.00 1008.46 1008.90 1009.32 1009.74 1010.16 1010.59 1011.02 1011.44 1011.83
1004.73 1004.70 1004.62 1004.47 1004.27 1004.02 1003.77 1003.54 1003.35 1003.22 1003.16 1003.16 1003.21 1003.27 1003.31 1003.32 1003.26 1003.13 1002.94 1002.72 1002.48 1002.28 1002.16 1002.15 1002.28 1002.55 1002.96 1003.50 1004.13 1004.81 1005.51 1006.20 1006.85 1007.45 1008.00 1008.51 1008.98 1009.44 1009.89 1010.35 1010.80 1011.26 1011.69 1012.09
1004.37 1004.31 1004.21 1004.06 1003.85 1003.59 1003.31 1003.03 1002.79 1002.60 1002.48 1002.43 1002.45 1002.51 1002.58 1002.64 1002.67 1002.66 1002.60 1002.51 1002.40 1002.33 1002.30 1002.37 1002.54 1002.84 1003.26 1003.79 1004.40 1005.07 1005.75 1006.43 1007.07 1007.67 1008.23 1008.75 1009.24 1009.72 1010.19 1010.66 1011.12 1011.58 1012.03 1012.43
1004.17 1004.13 1004.04 1003.89 1003.68 1003.40 1003.09 1002.75 1002.44 1002.17 1001.97 1001.85 1001.82 1001.87 1001.97 1002.09 1002.23 1002.36 1002.46 1002.54 1002.62 1002.70 1002.81 1002.98 1003.23 1003.56 1003.99 1004.49 1005.06 1005.67 1006.30 1006.93 1007.53 1008.09 1008.63 1009.13 1009.61 1010.08 1010.54 1011.01 1011.47 1011.93 1012.37 1012.76
1004.23 1004.23 1004.18 1004.06 1003.86 1003.57 1003.21 1002.82 1002.43 1002.07 1001.79 1001.60 1001.52 1001.54 1001.67 1001.87 1002.11 1002.39 1002.66 1002.93 1003.19 1003.44 1003.69 1003.97 1004.28 1004.64 1005.04 1005.50 1006.00 1006.53 1007.07 1007.60 1008.12 1008.62 1009.10 1009.56 1010.01 1010.45 1010.90 1011.35 1011.80 1012.24 1012.65 1013.03
1004.57 1004.64 1004.66 1004.59 1004.41 1004.12 1003.74 1003.30 1002.85 1002.41 1002.05 1001.79 1001.67 1001.68 1001.83 1002.09 1002.43 1002.84 1003.27 1003.70 1004.12 1004.51 1004.89 1005.24 1005.59 1005.94 1006.31 1006.69 1007.09 1007.51 1007.93 1008.36 1008.78 1009.19 1009.60 1010.01 1010.41 1010.82 1011.24 1011.67 1012.09 1012.51 1012.89 1013.24
1005.15 1005.33 1005.43 1005.42 1005.28 1005.02 1004.64 1004.18 1003.68 1003.20 1002.78 1002.48 1002.32 1002.33 1002.49 1002.80 1003.22 1003.72 1004.27 1004.82 1005.35 1005.85 1006.29 1006.68 1007.02 1007.34 1007.63 1007.91 1008.20 1008.49 1008.79 1009.10 1009.42 1009.76 1010.10 1010.46 1010.82 1011.21 1011.60 1012.00 1012.39 1012.77 1013.13 1013.44
1005.92 1006.19 1006.38 1006.44 1006.37 1006.15 1005.79 1005.35 1004.85 1004.36 1003.92 1003.60 1003.43 1003.43 1003.61 1003.94 1004.41 1004.97 1005.57 1006.19 1006.77 1007.30 1007.75 1008.12 1008.43 1008.67 1008.87 1009.04 1009.21 1009.39 1009.58 1009.79 1010.03 1010.30 1010.60 1010.93 1011.28 1011.64 1012.01 1012.39 1012.76 1013.11 1013.42 1013.68
1006.74 1007.11 1007.38 1007.52 1007.52 1007.36 1007.06 1006.66 1006.21 1005.74 1005.33 1005.02 1004.86 1004.87 1005.05 1005.39 1005.87 1006.43 1007.04 1007.65 1008.22 1008.72 1009.13 1009.45 1009.68 1009.83 1009.93 1010.01 1010.07 1010.15 1010.26 1010.42 1010.61 1010.86 1011.14 1011.47 1011.81 1012.18 1012.54 1012.91 1013.25 1013.56 1013.82 1014.03
1007.54 1007.96 1008.30 1008.52 1008.59 1008.51 1008.29 1007.97 1007.59 1007.19 1006.84 1006.58 1006.45 1006.47 1006.65 1006.98 1007.42 1007.95 1008.51 1009.06 1009.57 1010.00 1010.33 1010.56 1010.70 1010.77 1010.79 1010.78 1010.78 1010.81 1010.88 1011.01 1011.21 1011.46 1011.76 1012.10 1012.47 1012.85 1013.22 1013.56 1013.88 1014.14 1014.36 1014.51
1008.21 1008.67 1009.04 1009.31 1009.46 1009.46 1009.34 1009.13 1008.85 1008.55 1008.28 1008.09 1008.00 1008.05 1008.22 1008.52 1008.91 1009.37 1009.85 1010.31 1010.72 1011.05 1011.29 1011.44 1011.50 1011.50 1011.46 1011.41 1011.38 1011.40 1011.48 1011.63 1011.85 1012.14 1012.48 1012.86 1013.25 1013.64 1014.01 1014.35 1014.63 1014.85 1015.00 1015.09
1008.72 1009.17 1009.56 1009.87 1010.07 1010.16 1010.15 1010.04 1009.88 1009.70 1009.53 1009.42 1009.39 1009.45 1009.62 1009.88 1010.21 1010.58 1010.97 1011.33 1011.64 1011.88 1012.03 1012.11 1012.12 1012.08 1012.03 1011.98 1011.96 1012.00 1012.12 1012.31 1012.57 1012.91 1013.29 1013.70 1014.12 1014.52 1014.88 1015.18 1015.43 1015.60 1015.69 1015.72
1009.07 1009.49 1009.87 1010.20 1010.45 1010.61 1010.69 1010.69 1010.65 1010.58 1010.52 1010.49 1010.51 1010.60 1010.76 1010.98 1011.25 1011.55 1011.85 1012.12 1012.35 1012.51 1012.61 1012.66 1012.65 1012.61 1012.57 1012.56 1012.58 1012.67 1012.84 1013.07 1013.38 1013.75 1014.16 1014.58 1015.00 1015.39 1015.72 1015.99 1016.19 1016.30 1016.34 1016.30
1009.30 1009.66 1010.02 1010.34 1010.62 1010.84 1011.00 1011.11 1011.17 1011.20 1011.23 1011.28 1011.35 1011.46 1011.61 1011.80 1012.03 1012.26 1012.50 1012.71 1012.88 1013.01 1013.10 1013.14 1013.16 1013.16 1013.17 1013.21 1013.29 1013.43 1013.64 1013.91 1014.24 1014.61 1015.02 1015.42 1015.81 1016.16 1016.46 1016.68 1016.83 1016.89 1016.88 1016.80
1009.45 1009.76 1010.08 1010.39 1010.68 1010.94 1011.16 1011.34 1011.48 1011.60 1011.70 1011.80 1011.91 1012.04 1012.19 1012.36 1012.55 1012.75 1012.95 1013.14 1013.30 1013.44 1013.55 1013.63 1013.70 1013.77 1013.84 1013.94 1014.08 1014.26 1014.49 1014.77 1015.09 1015.44 1015.80 1016.15 1016.49 1016.78 1017.02 1017.20 1017.30 1017.33 1017.28 1017.18
1009.60 1009.85 1010.12 1010.41 1010.70 1010.97 1011.22 1011.45 1011.64 1011.81 1011.97 1012.10 1012.24 1012.38 1012.53 1012.70 1012.87 1013.06 1013.25 1013.45 1013.63 1013.81 1013.98 1014.13 1014.28 1014.42 1014.57 1014.73 1014.91 1015.11 1015.34 1015.59 1015.87 1016.16 1016.45 1016.73 1016.99 1017.22 1017.40 1017.53 1017.60 1017.61 1017.56 1017.46
1009.78 1009.99 1010.22 1010.48 1010.75 1011.01 1011.27 1011.51 1011.73 1011.92 1012.09 1012.24 1012.39 1012.53 1012.69 1012.85 1013.03 1013.23 1013.44 1013.67 1013.90 1014.14 1014.39 1014.62 1014.85 1015.08 1015.29 1015.50 1015.71 1015.91 1016.12 1016.32 1016.53 1016.73 1016.94 1017.13 1017.32 1017.48 1017.61 1017.72 1017.78 1017.80 1017.78 1017.71
1010.06 1010.22 1010.41 1010.63 1010.87 1011.11 1011.34 1011.57 1011.77 1011.96 1012.12 1012.27 1012.41 1012.56 1012.71 1012.88 1013.07 1013.29 1013.54 1013.81 1014.11 1014.43 1014.75 1015.07 1015.39 1015.68 1015.96 1016.20 1016.42 1016.61 1016.77 1016.92 1017.05 1017.17 1017.29 1017.41 1017.52 1017.64 1017.74 1017.84 1017.92 1017.98 1018.00 1017.99
1010.44 1010.56 1010.71 1010.89 1011.08 1011.27 1011.47 1011.65 1011.82 1011.98 1012.12 1012.25 1012.38 1012.51 1012.66 1012.84 1013.05 1013.30 1013.59 1013.92 1014.28 1014.67 1015.07 1015.46 1015.85 1016.20 1016.51 1016.78 1017.00 1017.17 1017.30 1017.39 1017.45 1017.51 1017.56 1017.62 1017.69 1017.78 1017.88 1018.00 1018.12 1018.22 1018.31 1018.36
Thickness
5740 5745 5745 5741 5740 5742 5740 5743 5740 5747 5751 5757 5760 5761 5763 5766 5769 5769 5769 5768 5766 5764 5761 5759 5757 5755 5753 5750 5748 5746 5742 5739 5738 5736 5735 5733 5732 5730 5728 5727 5726 5725 5723 5722
5725 5734 5736 5732 5737 5738 5738 5740 5741 5743 5745 5755 5757 5757 5757 5759 5762 5764 5765 5766 5766 5764 5762 5759 5758 5756 5754 5752 5749 5746 5743 5741 5740 5737 5735 5733 5732 5730 5728 5726 5726 5724 5723 5722
5715 5725 5720 5715 5730 5731 5732 5737 5737 5732 5739 5745 5743 5743 5746 5750 5754 5757 5762 5764 5764 5764 5763 5761 5761 5760 5756 5755 5751 5747 5745 5743 5741 5738 5736 5734 5733 5730 5728 5726 5725 5723 5722 5721
5710 5705 5691 5721 5734 5731 5726 5728 5733 5733 5734 5734 5734 5738 5743 5748 5748 5751 5755 5759 5762 5764 5764 5764 5764 5762 5759 5757 5753 5750 5746 5744 5742 5739 5736 5734 5732 5730 5728 5726 5724 5723 5722 5721
5698 5695 5702 5711 5717 5717 5712 5714 5723 5722 5723 5726 5730 5734 5738 5743 5744 5746 5750 5754 5759 5763 5765 5765 5764 5763 5759 5757 5754 5750 5748 5746 5744 5741 5737 5734 5731 5729 5727 5725 5723 5722 5720 5719
5687 5683 5685 5699 5710 5714 5708 5700 5712 5713 5713 5716 5721 5721 5726 5733 5736 5740 5744 5750 5755 5761 5763 5763 5763 5762 5758 5756 5753 5750 5749 5747 5745 5742 5738 5735 5732 5729 5726 5723 5721 5720 5719 5717
5679 5679 5689 5696 5702 5703 5686 5689 5701 5705 5707 5710 5710 5713 5719 5725 5728 5733 5738 5744 5750 5754 5757 5758 5760 5758 5754 5754 5752 5751 5750 5746 5743 5740 5737 5734 5731 5727 5724 5721 5718 5716 5715 5713
5674 5671 5673 5689 5692 5685 5683 5691 5694 5696 5700 5703 5706 5710 5713 5715 5719 5724 5730 5736 5742 5746 5749 5753 5755 5753 5750 5749 5750 5749 5746 5743 5740 5737 5735 5732 5727 5724 5721 5718 5713 5711 5708 5706
5671 5670 5676 5682 5680 5680 5682 5682 5685 5689 5693 5697 5699 5701 5703 5706 5709 5714 5720 5725 5731 5735 5739 5743 5746 5746 5744 5745 5745 5743 5740 5738 5735 5733 5730 5728 5723 5719 5716 5712 5711 5708 5705 5702
5663 5666 5668 5670 5672 5674 5676 5677 5680 5683 5686 5689 5689 5692 5693 5696 5699 5703 5707 5712 5718 5723 5726 5729 5734 5737 5738 5739 5738 5736 5733 5730 5728 5726 5723 5720 5718 5715 5712 5709 5706 5704 5701 5697
5656 5659 5660 5661 5662 5664 5668 5670 5672 5676 5678 5679 5681 5682 5683 5684 5688 5691 5695 5700 5706 5709 5711 5715 5719 5723 5726 5728 5728 5726 5723 5721 5719 5717 5714 5711 5707 5705 5704 5701 5701 5697 5695 5692
5648 5652 5652 5650 5653 5656 5658 5659 5662 5664 5667 5669 5670 5670 5671 5673 5676 5679 5683 5688 5693 5696 5698 5701 5705 5709 5712 5714 5715 5713 5711 5708 5707 5706 5703 5700 5697 5691 5686 5686 5683 5681 5680 5679
5645 5648 5647 5646 5647 5648 5650 5651 5652 5654 5655 5656 5657 5659 5660 5662 5664 5667 5671 5675 5678 5681 5684 5688 5691 5693 5696 5699 5701 5700 5699 5697 5696 5694 5691 5689 5688 5684 5678 5672 5667 5664 5663 5662
5640 5640 5638 5639 5639 5641 5642 5642 5643 5644 5646 5646 5646 5647 5649 5650 5653 5656 5658 5662 5665 5668 5671 5674 5677 5678 5681 5684 5686 5686 5685 5684 5683 5682 5680 5678 5677 5674 5671 5667 5662 5655 5648 5645
5634 5635 5634 5634 5634 5634 5635 5634 5634 5634 5635 5635 5636 5637 5638 5638 5640 5642 5645 5650 5653 5655 5657 5660 5663 5664 5667 5670 5671 5671 5671 5669 5668 5668 5667 5665 5663 5661 5659 5656 5652 5647 5642 5635
5627 5629 5629 5628 5628 5628 5628 5627 5626 5625 5625 5625 5625 5625 5627 5629 5630 5632 5635 5638 5640 5641 5643 5646 5649 5651 5654 5656 5657 5657 5655 5653 5654 5654 5653 5651 5649 5647 5646 5643 5640 5636 5632 5628
5620 5620 5621 5621 5622 5622 5621 5621 5620 5619 5618 5617 5616 5617 5619 5620 5621 5622 5623 5624 5626 5628 5629 5632 5635 5638 5641 5643 5645 5646 5644 5641 5639 5641 5640 5638 5636 5634 5632 5630 5627 5624 5620 5615
5617 5617 5617 5617 5617 5615 5614 5614 5614 5613 5612 5610 5611 5611 5611 5611 5611 5611 5612 5613 5615 5615 5616 5618 5620 5624 5626 5628 5630 5631 5631 5630 5629 5628 5626 5624 5623 5622 5620 5617 5615 5611 5607 5603
5610 5610 5610 5609 5610 5610 5609 5608 5607 5607 5606 5606 5605 5604 5603 5603 5603 5603 5604 5604 5604 5603 5602 5605 5605 5611 5612 5612 5614 5615 5616 5615 5615 5614 5612 5608 5610 5609 5607 5604 5601 5598 5595 5591
5601 5602 5602 5601 5601 5601 5600 5600 5599 5598 5598 5598 5597 5596 5595 5594 5594 5594 5595 5594 5592 5592 5592 5593 5597 5599 5599 5600 5602 5605 5604 5603 5602 5601 5599 5598 5596 5594 5592 5589 5586 5583 5580 5577
5593 5593 5593 5592 5591 5591 5591 5592 5592 5591 5590 5590 5589 5588 5587 5586 5587 5586 5587 5585 5581 5581 5583 5584 5587 5587 5588 5588 5591 5593 5592 5590 5589 5587 5585 5584 5581 5579 5577 5574 5571 5567 5564 5561
5586 5586 5585 5584 5583 5582 5582 5584 5584 5584 5584 5583 5582 5581 5580 5579 5579 5579 5577 5576 5574 5571 5576 5577 5576 5571 5573 5576 5580 5579 5578 5576 5575 5573 5571 5569 5566 5563 5560 5557 5555 5552 5548 5545
5579 5579 5578 5577 5576 5576 5576 5576 5576 5576 5576 5576 5575 5574 5574 5573 5574 5573 5570 5567 5567 5562 5564 5563 5557 5557 5558 5566 5566 5565 5563 5561 5559 5557 5555 5552 5550 5547 5544 5541 5538 5535 5532 5530
5571 5571 5570 5570 5570 5569 5568 5568 5568 5568 5568 5568 5567 5566 5566 5567 5566 5564 5560 5554 5552 5552 5553 5547 5545 5546 5547 5553 5552 5550 5548 5546 5544 5542 5539 5537 5535 5532 5529 5526 5523 5520 5518 5515
5564 5564 5564 5564 5563 5563 5562 5562 5562 5561 5562 5561 5560 5559 5559 5558 5556 5554 5551 5547 5542 5543 5544 5539 5535 5535 5539 5539 5537 5535 5532 5529 5527 5525 5524 5521 5519 5516 5513 5510 5508 5505 5502 5499
5557 5557 5556 5556 5556 5556 5558 5557 5556 5555 5555 5553 5552 5551 5549 5547 5545 5544 5541 5539 5536 5533 5534 5532 5530 5528 5528 5525 5523 5520 5518 5515 5514 5512 5509 5506 5504 5501 5497 5494 5491 5489 5486 5483
5550 5549 5549 5550 5550 5550 5550 5549 5548 5547 5546 5544 5542 5541 5539 5537 5535 5534 5532 5530 5528 5526 5523 5521 5519 5517 5514 5511 5508 5505 5503 5501 5499 5497 5495 5492 5489 5486 5483 5480 5477 5474 5471 5469